Location: Nashville
(36.1660°N, 86.7840°W)
Time: 20:07:38
(UTC-06:00)

A-11 Canister half - All Passes

Search period start: 22 January 2022 00:00
Search period end: 01 February 2022 00:00
Orbit: 1524 x 1684 km, 47.3° (Epoch: 22 January)

Date Brightness Start Highest point End Pass type
(mag) Time Alt. Az. Time Alt. Az. Time Alt. Az.
22 Jan - 09:04:11 10° S 09:10:35 21° SE 09:17:03 10° E daylight
22 Jan - 11:05:08 10° SW 11:14:25 77° SE 11:23:56 10° ENE daylight
22 Jan - 13:10:56 10° W 13:20:00 51° NNW 13:29:24 10° ENE daylight
22 Jan - 15:17:46 10° WNW 15:26:51 45° N 15:36:14 10° E daylight
22 Jan - 17:23:18 10° NW 17:33:06 79° NNE 17:43:12 10° ESE visible
22 Jan - 19:28:57 10° WNW 19:37:42 37° SW 19:46:39 10° SSE visible
23 Jan - 08:42:56 10° SSE 08:49:00 20° SE 08:55:06 10° E daylight
23 Jan - 10:43:31 10° SW 10:52:46 74° SE 11:02:14 10° ENE daylight
23 Jan - 12:49:10 10° W 12:58:16 52° NNW 13:07:39 10° ENE daylight
23 Jan - 14:56:03 10° WNW 15:05:05 44° N 15:14:24 10° ENE daylight
23 Jan - 17:01:37 10° NW 17:11:23 76° NNE 17:21:26 10° ESE daylight
23 Jan - 19:07:12 10° WNW 19:16:03 39° SW 19:25:07 10° SSE visible
24 Jan - 08:21:43 10° SSE 08:27:24 18° SE 08:33:07 10° E daylight
24 Jan - 10:21:54 10° SW 10:31:06 70° SE 10:40:31 10° ENE daylight
24 Jan - 12:27:26 10° W 12:36:31 53° NNW 12:45:55 10° ENE daylight
24 Jan - 14:34:19 10° WNW 14:43:19 44° N 14:52:36 10° ENE daylight
24 Jan - 16:39:57 10° NW 16:49:40 74° NNE 16:59:41 10° ESE daylight
24 Jan - 18:45:26 10° WNW 18:54:24 42° SW 19:03:35 10° SSE visible
25 Jan - 08:00:34 10° SSE 08:05:49 17° ESE 08:11:05 10° E daylight
25 Jan - 10:00:18 10° SW 10:09:28 67° SE 10:18:48 10° ENE daylight
25 Jan - 12:05:41 10° W 12:14:48 54° NNW 12:24:11 10° ENE daylight
25 Jan - 14:12:35 10° WNW 14:21:32 43° N 14:30:46 10° ENE daylight
25 Jan - 16:18:16 10° NW 16:27:56 71° NNE 16:37:55 10° ESE daylight
25 Jan - 18:23:41 10° WNW 18:32:45 44° SW 18:42:03 10° SSE visible
26 Jan - 07:39:28 10° SSE 07:44:14 15° ESE 07:49:00 10° E daylight
26 Jan - 09:38:43 10° SW 09:47:49 64° SE 09:57:06 10° ENE daylight
26 Jan - 11:43:56 10° W 11:53:04 56° NNW 12:02:27 10° ENE daylight
26 Jan - 13:50:52 10° WNW 13:59:46 43° N 14:08:57 10° ENE daylight
26 Jan - 15:56:35 10° NW 16:06:13 69° NNE 16:16:09 10° ESE daylight
26 Jan - 18:01:57 10° WNW 18:11:05 46° SW 18:20:29 10° SSE visible
27 Jan - 07:18:28 10° SSE 07:22:39 14° ESE 07:26:50 10° E daylight
27 Jan - 09:17:07 10° SW 09:26:11 61° SE 09:35:23 10° ENE daylight
27 Jan - 11:22:12 10° W 11:31:20 57° NNW 11:40:44 10° NE daylight
27 Jan - 13:29:07 10° WNW 13:38:00 43° N 13:47:09 10° ENE daylight
27 Jan - 15:34:56 10° NW 15:44:29 67° NNE 15:54:22 10° ESE daylight
27 Jan - 17:40:14 10° WNW 17:49:26 49° SW 17:58:54 10° SSE visible
28 Jan - 06:57:36 10° SE 07:01:04 13° ESE 07:04:31 10° E daylight
28 Jan - 08:55:33 10° SSW 09:04:33 58° SE 09:13:39 10° ENE daylight
28 Jan - 11:00:28 10° WSW 11:09:37 59° NNW 11:19:00 10° NE daylight
28 Jan - 13:07:23 10° WNW 13:16:14 43° N 13:25:20 10° ENE daylight
28 Jan - 15:13:15 10° NW 15:22:46 64° NNE 15:32:36 10° ESE daylight
28 Jan - 17:18:31 10° WNW 17:27:47 52° SW 17:37:19 10° SSE visible
28 Jan - 19:29:20 10° WSW 19:31:20 11° WSW 19:33:22 10° SW visible
29 Jan - 06:36:59 10° SE 06:39:29 11° ESE 06:41:59 10° ESE daylight
29 Jan - 08:33:58 10° SSW 08:42:55 55° SE 08:51:56 10° ENE daylight
29 Jan - 10:38:44 10° WSW 10:47:54 60° NNW 10:57:18 10° NE daylight
29 Jan - 12:45:39 10° WNW 12:54:28 42° N 13:03:32 10° ENE daylight
29 Jan - 14:51:34 10° NW 15:01:02 62° NNE 15:10:48 10° ESE daylight
29 Jan - 16:56:48 10° WNW 17:06:07 54° SW 17:15:43 10° SSE daylight
29 Jan - 19:06:32 10° WSW 19:09:43 12° WSW 19:12:58 10° SW visible
30 Jan - 06:17:25 10° SE 06:17:54 10° ESE 06:18:24 10° ESE visible
30 Jan - 08:12:25 10° SSW 08:21:17 52° SE 08:30:13 10° ENE daylight
30 Jan - 10:17:00 10° WSW 10:26:11 62° NNW 10:35:35 10° NE daylight
30 Jan - 12:23:54 10° WNW 12:32:42 42° N 12:41:45 10° ENE daylight
30 Jan - 14:29:54 10° NW 14:39:18 61° NNE 14:49:01 10° ESE daylight
30 Jan - 16:35:06 10° WNW 16:44:27 57° SW 16:54:06 10° SSE daylight
30 Jan - 18:44:06 10° W 18:48:07 13° WSW 18:52:10 10° SSW visible
31 Jan - 07:50:52 10° SSW 07:59:39 49° SE 08:08:29 10° ENE daylight
31 Jan - 09:55:16 10° WSW 10:04:29 64° NNW 10:13:52 10° NE daylight
31 Jan - 12:02:09 10° WNW 12:10:56 42° N 12:19:57 10° ENE daylight
31 Jan - 14:08:13 10° NW 14:17:35 59° NNE 14:27:14 10° ESE daylight
31 Jan - 16:13:24 10° WNW 16:22:47 60° SW 16:32:29 10° SSE daylight
31 Jan - 18:21:51 10° W 18:26:30 14° WSW 18:31:13 10° SSW visible
